Home > Weather > U.S.A. > Annapolis > Past weeks

Flag for U.S.A. Weather past 2 weeks in Annapolis, Maryland, U.S.A.

49 °F


Feels Like: 48 °F
Forecast: 49 / 58 °F
Wind: 3 mph from Southwest

Location: Annapolis - United States Naval Academy

Current Time: Dec 1, 2015 at 10:44:56 PM

Latest Report: Dec 1, 2015 at 9:54 PM

Visibility: 3 mi

Pressure: 30.02 "Hg

Humidity: 97%

Dew point: 48 °F

Location of AnnapolisLocation

Historic Weather in Annapolis — Graph


Annapolis temperature yesterday

Maximum temperature yesterday: 47 °F (at 10:54 PM)
Minimum temperature yesterday: 41 °F (at 5:54 AM)
Average temperature yesterday: 43 °F

Past Weeks' High & Low Weather Summary

High63 °F (Nov 19, 2:54 PM)100% (Nov 19, 5:54 PM)30.80 "Hg (Nov 19, 5:54 PM)
Low33 °F (Nov 23, 6:54 AM)25% (Nov 20, 5:54 PM)29.90 "Hg (Nov 22, 3:54 AM)
Average49 °F76%30.29 "Hg
* Reported Nov 16 8:54 PM — Dec 1 8:54 PM, Annapolis, Weather by CustomWeather, © 2015

Note: Actual official high and low records may vary slightly from our data, if they occured in-between our weather recording intervals... More about our weather records


Annapolis weather history for previous 24 hours

Time TempWeatherWind HumidityBarometerVisibility
8:54 PM
Tue, Dec 1
49 °FOvercast.No wind97%30.01 "Hg10 mi
6:54 PM50 °FMostly cloudy.No wind93%30.02 "Hg10 mi
6:03 PM50 °FOvercast.5 mph96%30.04 "Hg10 mi
4:54 PM50 °FLow clouds.No wind100%30.03 "Hg10 mi
3:54 PM50 °FMostly cloudy.3 mph100%30.04 "Hg10 mi
2:54 PM50 °FLight rain. Mostly cloudy.No wind100%30.03 "Hg9 mi
1:54 PM50 °FLight rain. Fog.3 mph100%30.06 "Hg3 mi
1:00 PM50 °FHeavy rain. Fog.No wind100%30.08 "Hg2 mi
12:03 PM50 °FLight rain. Fog.No wind96%30.09 "Hg3 mi
11:54 AM50 °FRain. Fog.No wind96%30.10 "Hg2 mi
10:54 AM50 °FRain. Fog.No wind96%30.14 "Hg1 mi
9:58 AM49 °FLight rain. Fog.No wind100%30.13 "Hg2 mi
9:03 AM49 °FRain. Fog.No wind97%30.13 "Hg3 mi
8:54 AM49 °FLight rain. Fog.No wind97%30.13 "Hg2 mi
8:02 AM49 °FLight rain. Fog.No wind97%30.13 "Hg3 mi
7:54 AM49 °FLight rain. Fog.5 mph97%30.14 "Hg3 mi
6:54 AM48 °FLight rain. Fog.5 mph100%30.14 "Hg3 mi
5:54 AM48 °FFog.5 mph100%30.14 "Hg3 mi
5:04 AM48 °FLight rain. Fog.5 mph100%30.13 "Hg2 mi
3:54 AM48 °FLight rain. Fog.6 mph96%30.15 "Hg3 mi
2:54 AM48 °FFog.5 mph96%30.16 "Hg2 mi
1:54 AM48 °FLight rain. Fog.5 mph93%30.17 "Hg2 mi
12:54 AM47 °FFog.6 mph97%30.18 "Hg6 mi
11:54 PM
Mon, Nov 30
47 °FOvercast.5 mph97%30.19 "Hg9 mi
10:54 PM47 °FOvercast.5 mph93%30.22 "Hg10 mi
Weather by CustomWeather, © 2015

See weather overviewHow to use our weather pages